{"data":{"norad_id":64220,"epoch":"2026-05-25T02:14:08.314656Z","epoch_age_seconds":64026,"freshness":"FRESH","line1":"1 64220U 25117T   26145.09315179  .00014225  00000+0  49143-3 0  9990","line2":"2 64220  53.1590  44.6969 0000873 102.3204 257.7894 15.30203970 56224","mean_motion":15.3020397,"eccentricity":8.73e-5,"inclination_deg":53.159,"raan_deg":44.6969,"arg_perigee_deg":102.3204,"mean_anomaly_deg":257.7894,"bstar":0.00049143,"rev_number":5622,"period_min":94.105101557147,"perigee_km":474.60491913972,"apogee_km":475.80151234138,"semimajor_km":6853.3402157405,"source":"CELESTRAK","updated_at":"2026-05-25T13:38:20.320779Z"}}